This demonstration page uses our WeatherBlox Daily Observations layout. Learn more.

Left ArrowRight Arrow

Hourly Observations for June 24, 2022

Temp ( °F °C ) Dew Point ( °F °C ) Humidity (%) Winds ( mph kmh ) Pressure ( in mb ) Visibility ( mi km ) Precip ( " mm )
12:53 am 00:53 Clear 81 27.2 59 15 47 47 Calm 29.87 1012 10 16 0.00 0.00
1:53 am 01:53 Clear 78 25.6 58 14.4 50 50 Calm 29.86 1011 10 16 0.00 0.00
2:53 am 02:53 Clear 76 24.4 60 15.6 58 58 Calm 29.85 1011 10 16 0.00 0.00
3:53 am 03:53 Clear 72 22.2 60 15.6 66 66 Calm 29.85 1011 10 16 0.00 0.00
4:53 am 04:53 Clear 73 22.8 62 16.7 69 69 Calm 29.86 1011 10 16 0.00 0.00
5:53 am 05:53 Clear 71 21.7 64 17.8 79 79 Calm 29.88 1012 10 16 0.00 0.00
6:53 am 06:53 Sunny 73 22.8 67 19.4 81 81 Calm 29.90 1012 10 16 0.00 0.00
7:53 am 07:53 Sunny 78 25.6 70 21.1 76 76 ESE 7 11 29.93 1013 10 16 0.00 0.00
8:53 am 08:53 Mostly Sunny 80 26.7 70 21.1 71 71 E 9 15 29.95 1014 10 16 0.00 0.00
9:53 am 09:53 Mostly Sunny 82 27.8 70 21.1 67 67 ESE 7 11 29.96 1015 10 16 0.00 0.00
10:53 am 10:53 Cloudy 84 28.9 69 20.6 61 61 VRB 6 9 29.97 1015 10 16 0.00 0.00
11:53 am 11:53 Mostly Cloudy 85 29.4 70 21.1 61 61 E 8 13 29.96 1015 10 16 0.00 0.00
12:53 pm 12:53 Partly Cloudy 88 31.1 69 20.6 54 54 ESE 8 13 29.96 1015 10 16 0.00 0.00
1:53 pm 13:53 Partly Cloudy 90 32.2 70 21.1 52 52 ESE 9 15 29.95 1014 10 16 0.00 0.00
2:53 pm 14:53 Mostly Cloudy 92 33.3 69 20.6 47 47 E 8 13 29.93 1013 10 16 0.00 0.00
3:53 pm 15:53 Mostly Cloudy 91 32.8 68 20 47 47 ESE 7 11 29.91 1013 10 16 0.00 0.00
4:53 pm 16:53 Partly Cloudy 92 33.3 69 20.6 47 47 NE 10 17 29.90 1013 10 16 0.00 0.00
5:53 pm 17:53 Mostly Sunny 91 32.8 67 19.4 45 45 E 8 13 29.90 1013 10 16 0.00 0.00
6:53 pm 18:53 Partly Cloudy 92 33.3 68 20 46 46 ENE 10 17 29.90 1013 10 16 0.00 0.00
7:53 pm 19:53 Sunny 90 32.2 68 20 48 48 E 8 13 29.91 1013 10 16 0.00 0.00
8:53 pm 20:53 Partly Cloudy 89 31.7 68 20 50 50 E 7 11 29.93 1014 10 16 0.00 0.00
9:53 pm 21:53 Cloudy 88 31.1 67 19.4 50 50 E 8 13 29.95 1014 10 16 0.00 0.00
10:53 pm 22:53 Cloudy with Nearby Thunderstorms 80 26.7 71 21.7 74 74 SW 15 24 30.00 1016 10 16 0.00 0.00
11:21 pm 23:21 Cloudy with Nearby Thunderstorms 77 25 71 21.7 82 82 SSW 12 19 30.02 1017 10 16 0.00 0.00
11:24 pm 23:24 Cloudy with Thunderstorms 77 25 71 21.7 82 82 SSW 13 20 30.02 1017 10 16 0.01 0.25
11:30 pm 23:30 Cloudy with Strong Thunderstorms 76 24.4 72 22.2 88 88 SW 15 24 30.01 1016 3 4 0.23 5.84
11:36 pm 23:36 Cloudy with Strong Thunderstorms 74 23.3 72 22.2 94 94 SW 22 35 30.02 1017 1 1 0.63 16.00
11:40 pm 23:40 Cloudy with Strong Thunderstorms 74 23.3 72 22.2 94 94 WSW 20 31 30.03 1017 1 1 0.94 23.88
11:53 pm 23:53 Mostly Cloudy with Strong Thunderstorms 75 23.9 72 22.2 90 90 SSE 12 19 30.03 1017 1 1 1.79 45.47

Powered by AerisWeather